Regional Weather Roundup
Issued by NWS Albany, NY

Home | Current Version | Previous Version | Graphics & Text | Print | Product List | Glossary Off
Versions: 1 2 3 4 5 6 7 8 9 10 11 12 13 14 15 16 17 18 19 20 21 22 23 24 25 26 27 28 29 30 31 32 33 34 35 36 37 38 39 40 41 42 43 44 45 46 47 48 49 50

828
ASUS41 KALY 290010
RWRALY

NEW YORK STATE HOURLY WEATHER ROUNDUP
NATIONAL WEATHER SERVICE ALBANY NY
800 PM EDT FRI JUL 28 2017

NOTE: "FAIR" INDICATES FEW OR NO CLOUDS BELOW 12,000 FEET WITH NO
SIGNIFICANT WEATHER AND/OR NO OBSTRUCTIONS TO VISIBILITY.

NYZ032-033-038>043-046>054-057>066-NYZ062>081-082-084-290100-
EAST


CITY           SKY/WX    TMP DP  RH WIND       PRES   REMARKS
ALBANY         MOCLDY    73  58  59 N5        29.86R
GLENS FALLS    PTCLDY    70  56  61 NE9       29.88R
POUGHKEEPSIE   CLOUDY    74  62  66 VRB3      29.82R
NEWBURGH       MOCLDY    75  63  64 NE9       29.85R
MONTGOMERY     MOCLDY    74  64  71 NE7       29.83R
WHITE PLAINS   CLOUDY    77  63  61 E5        29.82R
ISLIP          CLOUDY    75  71  87 SE5       29.81R
NEW YORK CITY  CLOUDY    82  70  66 E8        29.79R
CENTRAL PARK   CLOUDY    77  68  73 S3        29.82R
$$

NYZ005>009-017-018-044>046-055-056-290100-
CENTRAL


CITY           SKY/WX    TMP DP  RH WIND       PRES   REMARKS
FULTON         CLEAR     67  51  56 N6        29.93R
SYRACUSE       MOCLDY    68  54  60 N10       29.91R
ROME           CLEAR     69  54  58 N7        29.90R
ELMIRA         MOCLDY    68  57  68 N12       29.91R
BINGHAMTON     CLOUDY    65  57  75 N9        29.91R
$$

NYZ026>034-041>043-087-290100-
NORTH


CITY           SKY/WX    TMP DP  RH WIND       PRES   REMARKS
WATERTOWN      MOCLDY    62  53  72 NE5       29.94R
FORT DRUM      NOT AVBL
OGDENSBURG     FAIR      64  57  77 CALM      29.94S
MASSENA        CLEAR     66  55  67 CALM      29.94R
SARANAC LAKE   CLEAR     57  52  83 CALM      29.95R
PLATTSBURGH    CLEAR     64  50  60 NW3       29.91R
$$

NYZ001>004-010>016-019>021-085-290100-
WEST


CITY           SKY/WX    TMP DP  RH WIND       PRES   REMARKS
NIAGARA FALLS  MOCLDY    67  50  54 NE6       29.95R
BUFFALO        MOCLDY    67  48  50 NE12      29.95R
DUNKIRK        PTCLDY    68  54  60 NE17G25   29.93R
JAMESTOWN      PTCLDY    66  54  63 NE14G21   29.93R
WELLSVILLE     CLOUDY    65  54  67 NE12      29.96R
ROCHESTER      MOCLDY    68  51  54 NE9       29.95R
PENN YAN       PTCLDY    66  50  56 N6        29.94S
$$

             KEY
       WCI = WIND CHILL INDEX
       VSB = VISIBILITY
       HX  = HEAT INDEX
$$




USA.gov is the U.S. government's official web portal to all federal, state and local government web resources and services.